Location: B?ogocice
(50.2413°N, 20.2361°E)
Time: 23:31:51
(UTC+00:00)

Cosmos 292 Rocket - Pass Details

Date: 15 June 2024
Orbit: 667 x 689 km, 74.0° (Epoch: 18 July)

Event Time Altitude Azimuth Distance (km) Brightness Sun altitude
Exits shadow 00:04:06 22° 202° (SSW) 1,458 4.8 -14.1°
Maximum altitude 00:07:10 89° 119° (ESE) 688 3.7 -13.9°
Drops below altitude 10° 00:12:00 10° 24° (NNE) 2,140 7.8 -13.6°
Sets 00:14:19 0° 25° (NNE) 3,064 9.2 -13.5°
